TimeCST,TemperatureF,Dew PointF,Humidity,Sea Level PressureIn,VisibilityMPH,Wind Direction,Wind SpeedMPH,Gust SpeedMPH,PrecipitationIn,Events,Conditions,WindDirDegrees,DateUTC
12:15 AM,46.4,41.0,81,30.06,3.0,SSE,9.2,-,N/A,Rain,Light Rain,150,2013-03-09 06:15:00
12:55 AM,44.6,42.8,93,30.06,2.5,SSE,9.2,16.1,N/A,,Overcast,150,2013-03-09 06:55:00
1:15 AM,44.6,42.8,93,30.05,4.0,SE,9.2,-,N/A,,Overcast,140,2013-03-09 07:15:00
1:35 AM,44.6,42.8,93,30.06,4.0,SSE,10.4,-,N/A,,Light Drizzle,150,2013-03-09 07:35:00
1:55 AM,44.6,42.8,93,30.05,4.0,SSE,9.2,-,N/A,,Overcast,150,2013-03-09 07:55:00
2:15 AM,44.6,42.8,93,30.03,2.0,SE,9.2,-,N/A,,Overcast,140,2013-03-09 08:15:00
2:35 AM,44.6,42.8,93,30.01,5.0,SE,11.5,-,N/A,,Overcast,140,2013-03-09 08:35:00
2:55 AM,44.6,42.8,93,30.00,5.0,SE,10.4,-,N/A,,Light Drizzle,140,2013-03-09 08:55:00
3:15 AM,44.6,42.8,93,29.99,6.0,SE,10.4,-,N/A,,Overcast,140,2013-03-09 09:15:00
3:35 AM,44.6,42.8,93,29.98,6.0,SE,10.4,-,N/A,,Overcast,140,2013-03-09 09:35:00
3:55 AM,44.6,42.8,93,29.97,5.0,SE,10.4,-,N/A,,Overcast,140,2013-03-09 09:55:00
4:15 AM,44.6,42.8,93,29.97,5.0,SE,10.4,-,N/A,,Overcast,140,2013-03-09 10:15:00
4:35 AM,44.6,42.8,93,29.96,6.0,SE,9.2,-,N/A,,Overcast,130,2013-03-09 10:35:00
4:55 AM,44.6,42.8,93,29.96,7.0,SE,9.2,-,N/A,,Overcast,140,2013-03-09 10:55:00
5:15 AM,46.4,42.8,87,29.96,7.0,SSE,8.1,-,N/A,,Overcast,150,2013-03-09 11:15:00
5:55 AM,46.4,42.8,87,29.95,7.0,SE,6.9,-,N/A,,Mostly Cloudy,140,2013-03-09 11:55:00
6:15 AM,44.6,42.8,93,29.95,8.0,SSE,9.2,-,N/A,,Mostly Cloudy,150,2013-03-09 12:15:00
6:35 AM,46.4,42.8,87,29.94,8.0,SE,9.2,-,N/A,,Mostly Cloudy,140,2013-03-09 12:35:00
6:55 AM,46.4,42.8,87,29.94,8.0,SE,8.1,-,N/A,,Overcast,140,2013-03-09 12:55:00
7:15 AM,46.4,42.8,87,29.93,6.0,SE,8.1,-,N/A,,Overcast,130,2013-03-09 13:15:00
7:35 AM,46.4,42.8,87,29.94,7.0,SE,9.2,-,N/A,,Overcast,140,2013-03-09 13:35:00
7:55 AM,46.4,42.8,87,29.93,7.0,SE,9.2,-,N/A,,Overcast,140,2013-03-09 13:55:00
8:15 AM,46.4,42.8,87,29.92,7.0,SE,10.4,-,N/A,,Overcast,140,2013-03-09 14:15:00
8:35 AM,46.4,42.8,87,29.91,7.0,SE,9.2,-,N/A,,Overcast,130,2013-03-09 14:35:00
8:55 AM,48.2,42.8,82,29.91,8.0,SE,9.2,-,N/A,,Overcast,140,2013-03-09 14:55:00
9:15 AM,48.2,42.8,82,29.90,8.0,SSE,9.2,-,N/A,,Overcast,150,2013-03-09 15:15:00
9:35 AM,50.0,42.8,76,29.89,9.0,SSE,9.2,-,N/A,,Overcast,150,2013-03-09 15:35:00
9:55 AM,51.8,42.8,71,29.88,9.0,SSE,10.4,-,N/A,,Overcast,160,2013-03-09 15:55:00
10:15 AM,51.8,42.8,71,29.87,9.0,SSE,10.4,-,N/A,,Overcast,150,2013-03-09 16:15:00
10:35 AM,53.6,44.6,72,29.87,9.0,SE,9.2,-,N/A,,Overcast,140,2013-03-09 16:35:00
10:55 AM,53.6,44.6,72,29.85,10.0,SE,10.4,-,N/A,,Overcast,140,2013-03-09 16:55:00
11:15 AM,55.4,44.6,67,29.84,10.0,SE,8.1,-,N/A,,Overcast,140,2013-03-09 17:15:00
11:35 AM,57.2,44.6,63,29.82,10.0,SSE,11.5,18.4,N/A,,Overcast,150,2013-03-09 17:35:00
11:55 AM,60.8,42.8,52,29.80,10.0,SSE,18.4,21.9,N/A,,Overcast,160,2013-03-09 17:55:00
12:15 PM,62.6,44.6,52,29.79,10.0,South,15.0,23.0,N/A,,Mostly Cloudy,170,2013-03-09 18:15:00
12:35 PM,62.6,44.6,52,29.78,10.0,South,17.3,26.5,N/A,,Mostly Cloudy,170,2013-03-09 18:35:00
12:55 PM,64.4,46.4,52,29.76,10.0,SSE,19.6,25.3,N/A,,Scattered Clouds,160,2013-03-09 18:55:00
1:15 PM,66.2,46.4,49,29.75,10.0,South,17.3,26.5,N/A,,Clear,170,2013-03-09 19:15:00
1:35 PM,66.2,44.6,46,29.74,10.0,South,18.4,27.6,N/A,,Partly Cloudy,170,2013-03-09 19:35:00
1:55 PM,66.2,44.6,46,29.73,10.0,SSE,17.3,28.8,N/A,,Mostly Cloudy,160,2013-03-09 19:55:00
2:15 PM,68.0,46.4,46,29.73,10.0,SSE,16.1,21.9,N/A,,Overcast,160,2013-03-09 20:15:00
2:35 PM,68.0,46.4,46,29.72,10.0,South,16.1,24.2,N/A,,Mostly Cloudy,170,2013-03-09 20:35:00
2:55 PM,68.0,46.4,46,29.72,10.0,South,12.7,24.2,N/A,,Overcast,180,2013-03-09 20:55:00
3:15 PM,66.2,46.4,49,29.72,9.0,South,15.0,19.6,N/A,,Overcast,180,2013-03-09 21:15:00
3:35 PM,68.0,48.2,49,29.72,10.0,South,12.7,20.7,N/A,,Overcast,170,2013-03-09 21:35:00
3:55 PM,66.2,48.2,52,29.72,10.0,South,12.7,23.0,N/A,,Overcast,190,2013-03-09 21:55:00
4:15 PM,66.2,51.8,60,29.71,10.0,South,10.4,-,N/A,,Overcast,180,2013-03-09 22:15:00
4:35 PM,66.2,51.8,60,29.70,10.0,South,9.2,-,N/A,,Overcast,180,2013-03-09 22:35:00
4:55 PM,64.4,51.8,64,29.70,9.0,South,8.1,-,N/A,,Overcast,180,2013-03-09 22:55:00
5:15 PM,66.2,51.8,60,29.69,9.0,South,12.7,19.6,N/A,,Overcast,180,2013-03-09 23:15:00
5:35 PM,66.2,51.8,60,29.69,9.0,South,11.5,17.3,N/A,,Overcast,180,2013-03-09 23:35:00
5:55 PM,64.4,51.8,64,29.69,10.0,South,10.4,-,N/A,,Overcast,180,2013-03-09 23:55:00
6:15 PM,64.4,51.8,64,29.69,10.0,South,10.4,-,N/A,Thunderstorm,Overcast,170,2013-03-10 00:15:00
6:35 PM,64.4,51.8,64,29.69,10.0,South,13.8,-,N/A,,Overcast,180,2013-03-10 00:35:00
6:55 PM,64.4,53.6,68,29.69,10.0,South,15.0,26.5,N/A,,Mostly Cloudy,180,2013-03-10 00:55:00
7:15 PM,64.4,53.6,68,29.69,10.0,South,12.7,-,N/A,,Mostly Cloudy,180,2013-03-10 01:15:00
7:35 PM,62.6,53.6,72,29.69,10.0,South,13.8,18.4,N/A,,Scattered Clouds,180,2013-03-10 01:35:00
7:55 PM,62.6,55.4,77,29.70,8.0,South,10.4,-,N/A,,Overcast,170,2013-03-10 01:55:00
8:15 PM,62.6,55.4,77,29.69,10.0,South,13.8,24.2,N/A,,Overcast,180,2013-03-10 02:15:00
8:55 PM,62.6,55.4,77,29.69,9.0,South,15.0,20.7,N/A,Rain,Light Rain,170,2013-03-10 02:55:00
9:15 PM,60.8,55.4,82,29.69,8.0,SSE,17.3,23.0,N/A,Rain,Light Rain,160,2013-03-10 03:15:00
9:35 PM,60.8,55.4,82,29.69,10.0,SSE,18.4,-,N/A,,Overcast,150,2013-03-10 03:35:00
9:55 PM,60.8,55.4,82,29.68,10.0,SSE,16.1,25.3,N/A,,Mostly Cloudy,160,2013-03-10 03:55:00
10:15 PM,60.8,55.4,82,29.69,7.0,SSE,18.4,25.3,N/A,,Mostly Cloudy,160,2013-03-10 04:15:00
10:35 PM,59.0,57.2,94,29.69,4.0,South,15.0,21.9,N/A,,Overcast,170,2013-03-10 04:35:00
10:55 PM,59.0,57.2,94,29.69,2.0,SSE,17.3,-,N/A,Rain,Rain,160,2013-03-10 04:55:00
11:15 PM,59.0,57.2,94,29.69,2.0,South,17.3,24.2,N/A,Rain,Rain,170,2013-03-10 05:15:00
11:35 PM,59.0,59.0,100,29.70,3.0,South,12.7,18.4,N/A,Rain-Thunderstorm,Rain,180,2013-03-10 05:35:00
11:55 PM,59.0,59.0,100,29.71,1.2,South,13.8,20.7,N/A,Rain,Heavy Rain,180,2013-03-10 05:55:00